TimeCDT,TemperatureF,Dew PointF,Humidity,Sea Level PressureIn,VisibilityMPH,Wind Direction,Wind SpeedMPH,Gust SpeedMPH,PrecipitationIn,Events,Conditions,WindDirDegrees,DateUTC
12:15 AM,64.4,53.6,68,29.97,10.0,SSE,10.4,-,N/A,,Clear,160,2012-10-04 05:15:00
12:35 AM,64.4,53.6,68,29.95,10.0,SSE,12.7,-,N/A,,Clear,160,2012-10-04 05:35:00
12:55 AM,66.2,53.6,64,29.97,10.0,South,12.7,18.4,N/A,,Clear,170,2012-10-04 05:55:00
1:15 AM,66.2,53.6,64,29.97,10.0,South,12.7,19.6,N/A,,Clear,170,2012-10-04 06:15:00
1:35 AM,64.4,53.6,68,29.97,10.0,South,11.5,18.4,N/A,,Clear,180,2012-10-04 06:35:00
1:55 AM,64.4,53.6,68,29.97,10.0,South,11.5,18.4,N/A,,Clear,170,2012-10-04 06:55:00
2:15 AM,64.4,53.6,68,29.97,10.0,South,11.5,-,N/A,,Clear,170,2012-10-04 07:15:00
2:35 AM,64.4,53.6,68,29.97,10.0,South,12.7,17.3,N/A,,Clear,170,2012-10-04 07:35:00
2:55 AM,62.6,53.6,72,29.98,10.0,South,10.4,-,N/A,,Clear,170,2012-10-04 07:55:00
3:15 AM,62.6,53.6,72,29.97,10.0,South,12.7,-,N/A,,Clear,170,2012-10-04 08:15:00
3:35 AM,62.6,53.6,72,29.97,10.0,South,10.4,-,N/A,,Clear,170,2012-10-04 08:35:00
3:55 AM,62.6,53.6,72,29.97,10.0,South,9.2,-,N/A,,Clear,170,2012-10-04 08:55:00
4:15 AM,62.6,53.6,72,29.98,10.0,South,10.4,-,N/A,,Clear,170,2012-10-04 09:15:00
4:35 AM,62.6,53.6,72,29.99,10.0,South,10.4,-,N/A,,Clear,170,2012-10-04 09:35:00
4:55 AM,62.6,53.6,72,29.99,10.0,SSE,9.2,-,N/A,,Clear,160,2012-10-04 09:55:00
5:15 AM,62.6,53.6,72,29.99,10.0,SSE,8.1,-,N/A,,Clear,160,2012-10-04 10:15:00
5:35 AM,62.6,53.6,72,30.02,10.0,SE,4.6,-,N/A,,Clear,140,2012-10-04 10:35:00
5:55 AM,60.8,53.6,77,30.06,10.0,NNE,3.5,-,N/A,,Clear,20,2012-10-04 10:55:00
6:15 AM,59.0,53.6,82,30.07,10.0,Calm,Calm,-,N/A,,Clear,0,2012-10-04 11:15:00
6:35 AM,57.2,53.6,88,30.09,10.0,Calm,Calm,-,N/A,,Clear,0,2012-10-04 11:35:00
7:15 AM,57.2,53.6,88,30.09,10.0,Calm,Calm,-,N/A,,Clear,0,2012-10-04 12:15:00
8:15 AM,55.4,53.6,94,30.11,10.0,Calm,Calm,-,N/A,,Clear,0,2012-10-04 13:15:00
8:35 AM,55.4,53.6,94,30.13,10.0,Calm,Calm,-,N/A,,Clear,0,2012-10-04 13:35:00
8:55 AM,59.0,55.4,88,30.14,10.0,Calm,Calm,-,N/A,,Scattered Clouds,0,2012-10-04 13:55:00
9:15 AM,59.0,51.8,77,30.16,10.0,North,13.8,25.3,N/A,,Mostly Cloudy,10,2012-10-04 14:15:00
9:35 AM,57.2,46.4,67,30.18,10.0,North,16.1,26.5,N/A,,Overcast,10,2012-10-04 14:35:00
9:55 AM,55.4,46.4,72,30.19,10.0,North,16.1,25.3,N/A,,Overcast,360,2012-10-04 14:55:00
10:35 AM,55.4,44.6,67,30.20,10.0,North,18.4,27.6,N/A,,Overcast,360,2012-10-04 15:35:00
10:55 AM,55.4,42.8,63,30.21,10.0,North,20.7,31.1,N/A,,Overcast,10,2012-10-04 15:55:00
11:15 AM,55.4,44.6,67,30.21,10.0,North,17.3,27.6,N/A,,Overcast,10,2012-10-04 16:15:00
11:35 AM,55.4,44.6,67,30.21,10.0,North,16.1,25.3,N/A,,Overcast,10,2012-10-04 16:35:00
12:15 PM,57.2,44.6,63,30.21,10.0,North,15.0,21.9,N/A,,Overcast,10,2012-10-04 17:15:00
12:55 PM,57.2,44.6,63,30.22,10.0,North,16.1,21.9,N/A,,Overcast,10,2012-10-04 17:55:00
1:15 PM,59.0,44.6,59,30.22,10.0,North,15.0,21.9,N/A,,Overcast,10,2012-10-04 18:15:00
1:35 PM,59.0,44.6,59,30.21,10.0,NNE,18.4,21.9,N/A,,Overcast,20,2012-10-04 18:35:00
2:15 PM,60.8,44.6,55,30.20,10.0,North,17.3,21.9,N/A,,Overcast,360,2012-10-04 19:15:00
2:35 PM,60.8,44.6,55,30.20,10.0,North,18.4,24.2,N/A,,Overcast,10,2012-10-04 19:35:00
2:55 PM,60.8,44.6,55,30.20,10.0,North,13.8,-,N/A,,Overcast,10,2012-10-04 19:55:00
3:15 PM,60.8,44.6,55,30.19,10.0,NNE,15.0,18.4,N/A,,Overcast,20,2012-10-04 20:15:00
3:35 PM,60.8,44.6,55,30.18,10.0,NNE,15.0,20.7,N/A,,Overcast,30,2012-10-04 20:35:00
3:55 PM,60.8,44.6,55,30.18,10.0,North,12.7,19.6,N/A,,Overcast,10,2012-10-04 20:55:00
4:15 PM,60.8,44.6,55,30.19,10.0,NNE,12.7,16.1,N/A,,Overcast,20,2012-10-04 21:15:00
4:35 PM,60.8,44.6,55,30.19,10.0,North,15.0,-,N/A,,Overcast,360,2012-10-04 21:35:00
4:55 PM,60.8,44.6,55,30.19,10.0,North,12.7,-,N/A,,Overcast,10,2012-10-04 21:55:00
5:15 PM,60.8,44.6,55,30.18,10.0,North,11.5,-,N/A,,Overcast,10,2012-10-04 22:15:00
6:15 PM,60.8,44.6,55,30.18,10.0,North,11.5,-,N/A,,Overcast,10,2012-10-04 23:15:00
6:35 PM,59.0,44.6,59,30.18,10.0,North,9.2,-,N/A,,Overcast,10,2012-10-04 23:35:00
7:15 PM,59.0,44.6,59,30.18,10.0,North,9.2,-,N/A,,Overcast,10,2012-10-05 00:15:00
7:35 PM,59.0,44.6,59,30.18,10.0,NNE,12.7,-,N/A,,Overcast,20,2012-10-05 00:35:00
7:55 PM,59.0,42.8,55,30.18,10.0,NNE,10.4,-,N/A,,Overcast,30,2012-10-05 00:55:00
8:15 PM,59.0,44.6,59,30.18,10.0,NNE,9.2,-,N/A,,Overcast,20,2012-10-05 01:15:00
8:35 PM,59.0,44.6,59,30.18,10.0,NNE,5.8,-,N/A,,Overcast,30,2012-10-05 01:35:00
8:55 PM,59.0,42.8,55,30.18,10.0,NNE,11.5,-,N/A,,Overcast,30,2012-10-05 01:55:00
9:15 PM,59.0,42.8,55,30.18,10.0,NNE,9.2,-,N/A,,Overcast,30,2012-10-05 02:15:00
9:35 PM,59.0,42.8,55,30.19,10.0,NE,6.9,-,N/A,,Overcast,40,2012-10-05 02:35:00
10:15 PM,57.2,42.8,59,30.19,10.0,NNE,9.2,-,N/A,,Overcast,30,2012-10-05 03:15:00
10:35 PM,57.2,42.8,59,30.20,10.0,NNE,9.2,-,N/A,,Overcast,30,2012-10-05 03:35:00
11:15 PM,55.4,42.8,63,30.21,10.0,NNE,8.1,-,N/A,,Overcast,30,2012-10-05 04:15:00
11:35 PM,55.4,42.8,63,30.20,10.0,NE,10.4,-,N/A,,Overcast,40,2012-10-05 04:35:00
11:55 PM,55.4,42.8,63,30.20,10.0,NNE,10.4,-,N/A,,Overcast,30,2012-10-05 04:55:00